Hourly Weather Roundup
Issued by NWS Central Illinois

Home | Current Version | Previous Version | Text Only | Print | Product List | Glossary On
Versions: 1 2 3 4 5 6 7 8 9 10 11 12 13 14 15 16 17 18 19 20 21 22 23 24 25 26 27 28 29 30 31 32 33 34 35 36 37 38 39 40 41 42 43 44 45 46 47 48 49 50
469
NZUS43 KILX 190710
HWRILX

Area Weather Roundup
National Weather Service Lincoln IL
100 AM CST MON FEB 19 2018

NOTE:  "FAIR" indicates few or no clouds below 12,000 feet, with
       no sigificant weather and/or obstructions to visibility.


CITY           SKY/WX    TMP DP  RH WIND       PRES   REMARKS
Bloomington    LGT RAIN  41  38  89 S13       29.86R WCI  34
Champaign      CLOUDY    44  38  79 S21G29    29.87F
Danville       RAIN      44  36  71 S17G25    29.87F
Decatur        LGT RAIN  46  39  76 S17       29.88S
Effingham      CLOUDY    49  38  66 SE10G16   29.96S
Flora          CLOUDY    50  39  67 S14       29.97F
Galesburg      CLOUDY    42  38  84 S8        29.83S
Jacksonville   CLOUDY    47  39  73 S13G21    29.85R
Lacon          CLOUDY    40  37  89 S8        29.85F WCI  35
Lawrenceville  CLOUDY    48  39  71 S15       30.00F
Litchfield     CLOUDY    47  42  83 S17G25    29.89F
$$


CITY           SKY/WX    TMP DP  RH WIND       PRES   REMARKS
Lincoln        CLOUDY    47  41  81 S7        29.87R
Macomb         CLOUDY    41  36  84 S5        29.85S
Mattoon        CLOUDY    47  38  71 S15       29.91F
Mt Carmel AP   CLOUDY    48  39  70 S10       30.00S
Olney-Noble AP CLOUDY    49  36  60 S14       29.98S
Paris AP       LGT RAIN  44  38  80 S20       29.93F
Peoria         CLOUDY    41  38  89 S6        29.86F
Pontiac        LGT RAIN  41  40  97 SW9       29.89R
Rantoul        LGT RAIN  43  39  86 S12       29.87F
Robinson       CLOUDY    47  37  68 S13       29.98F
Springfield    CLOUDY    50  41  71 S21G30    29.87R
Taylorville    CLOUDY    47  39  72 S18G26    29.89R
$$

...REGIONAL REPORTS...


CITY           SKY/WX    TMP DP  RH WIND       PRES   REMARKS
Chicago O`Hare CLOUDY    39  32  76 S10       29.86F WCI  32
Kankakee       LGT RAIN  41  34  75 S9        29.87F
Moline         CLOUDY    43  35  73 S6        29.79S
Mount Sterling CLOUDY    45  40  81 S5        29.83R
Mount Vernon   CLOUDY    52  45  77 S14G21    29.97F
Pittsfield     CLOUDY    49  42  76 S9        29.84S
Quincy         CLOUDY    48  40  73 S7        29.81S
Rockford       CLOUDY    36  31  82 S12       29.84F WCI  28
$$


CITY           SKY/WX    TMP DP  RH WIND       PRES   REMARKS
Burlington     CLOUDY    45  34  65 S9        29.79S
Cedar Rapids   CLOUDY    41  30  65 S9        29.75R
Des Moines     CLOUDY    44  33  65 SE6       29.70S
Kirksville     CLOUDY    49  43  80 S8        29.76F
Ottumwa        CLOUDY    45  32  60 S9        29.73S
St Louis       CLOUDY    52  46  80 S15       29.89R
$$


CITY           SKY/WX    TMP DP  RH WIND       PRES   REMARKS
Terre Haute    MOCLDY    48  36  63 S16       29.97F
Evansville     CLOUDY    52  41  66 S9        30.05R
Indianapolis   MOCLDY    44  34  67 S12       30.00F
Lafayette      MOCLDY    43  33  68 S10       29.93F
Madison        CLOUDY    36  31  82 S7        29.81F WCI  30
Milwaukee      CLOUDY    36  31  82 CALM      29.84F
$$






USA.gov is the U.S. government's official web portal to all federal, state and local government web resources and services.